Weather History for Williston, ND

Change the Weather History Date:

Thursday, February 14, 2013

  Actual Average Record
Temperature  
Mean Temperature 24 °F 16 °F  
Max Temperature 30 °F 27 °F 54 °F (1981)
Min Temperature 18 °F 6 °F -39 °F (1936)
Degree Days  
Heating Degree Days 41 49  
Month to date heating degree days 586 706  
Since 1 July heating degree days 5960 6127  
Cooling Degree Days 0 0  
Month to date cooling degree days 0 0  
Year to date cooling degree days 0 0  
Moisture  
Dew Point 21 °F    
Average Humidity 84    
Maximum Humidity 92    
Minimum Humidity 75    
Precipitation  
Precipitation T in 0.01 in 0.19 in (1962)
Month to date precipitation 0.05 0.17  
Year to date precipitation 0.48 0.76  
Snow  
Snow T in 0.20 in 2.00 in (1962)
Month to date snowfall 0.5 2.6  
Snow Depth 3.00 in    
Sea Level Pressure  
Sea Level Pressure 30.17 in    
Wind  
Wind Speed 15 mph (NNW)    
Max Wind Speed 35 mph    
Max Gust Speed 40 mph    
Visibility 6 miles    
Events Fog , Snow    
T = Trace of Precipitation, MM = Missing Value Source: NWS Daily Summary

Daily Weather History Graph

Daily Weather History Graph

Search for Another Location

Airport:

Trip Planner

Search our weather history database for the weather conditions in past years. The results will help you decide how hot, cold, wet, or windy it might be!

Date:

Astronomy

Feb. 14, 2013 Rise Set
Actual Time 8:02 AM CST 6:15 PM CST
Civil Twilight 7:30 AM CST 6:47 PM CST
Nautical Twilight 6:53 AM CST 7:24 PM CST
Astronomical Twilight 6:17 AM CST 8:00 PM CST
Moon 9:39 AM CST (2/14) 11:49 PM CST (2/14)
Length of Visible Light 11h 17m
Length of Day
10h 13m
Waxing Crescent, 22% of the Moon is Illuminated
Feb 14
Waxing Crescent
Feb 17
First Quarter
Feb 25
Full
Mar 4
Last Quarter
Mar 11
New

Hourly Weather History & Observations

Time (CST) Temp. Windchill Dew Point Humidity Pressure Visibility Wind Dir Wind Speed Gust Speed Precip Events Conditions
12:52 AM 30.0 °F 16.3 °F 26.1 °F 85% 29.87 in 7.0 mi West 24.2 mph - 0.00 in Snow Light Snow
1:28 AM 30.2 °F 17.8 °F 26.6 °F 86% 29.80 in 1.8 mi West 19.6 mph 28.8 mph 0.00 in Snow Light Snow
1:41 AM 30.2 °F 17.8 °F 26.6 °F 86% 29.80 in 3.0 mi West 19.6 mph 28.8 mph 0.00 in Snow Light Snow
1:52 AM 30.0 °F 16.3 °F 27.0 °F 88% 29.87 in 8.0 mi WNW 24.2 mph 31.1 mph 0.00 in Snow Light Snow
2:52 AM 30.0 °F 19.5 °F 26.1 °F 85% 29.89 in 10.0 mi WNW 13.8 mph - 0.00 in   Overcast
3:30 AM 28.4 °F 15.4 °F 28.4 °F 100% 29.83 in 7.0 mi NW 19.6 mph - 0.00 in Snow Light Snow
3:40 AM 28.4 °F 12.7 °F 26.6 °F 93% 29.85 in 2.5 mi North 29.9 mph 38.0 mph 0.00 in Snow Light Snow
3:43 AM 26.6 °F 10.6 °F 24.8 °F 93% 29.86 in 1.2 mi North 28.8 mph 38.0 mph 0.00 in Snow Light Snow
3:52 AM 25.0 °F 8.9 °F 25.0 °F 100% 29.96 in 0.8 mi North 26.5 mph 40.3 mph 0.00 in Snow Light Snow
3:59 AM 24.8 °F 9.6 °F 24.8 °F 100% 29.89 in 1.0 mi North 23.0 mph 38.0 mph 0.00 in Snow Light Snow
4:19 AM 24.8 °F 7.6 °F 23.0 °F 93% 29.92 in 1.2 mi North 31.1 mph 39.1 mph 0.00 in Snow Light Snow
4:43 AM 24.8 °F 9.3 °F 23.0 °F 93% 29.96 in 2.5 mi North 24.2 mph 34.5 mph 0.00 in Snow Light Snow
4:52 AM 24.1 °F 7.7 °F 21.9 °F 91% 30.06 in 2.0 mi North 26.5 mph 33.4 mph 0.00 in Snow Light Snow
4:59 AM 23.0 °F 6.6 °F 21.2 °F 93% 29.99 in 1.8 mi North 25.3 mph 34.5 mph 0.00 in Snow Light Snow
5:06 AM 23.0 °F 6.6 °F 21.2 °F 93% 30.00 in 2.0 mi NNE 25.3 mph 33.4 mph 0.00 in Snow Light Snow
5:20 AM 23.0 °F 8.3 °F 21.2 °F 93% 30.01 in 3.0 mi North 19.6 mph 28.8 mph 0.00 in Snow Light Snow
5:27 AM 23.0 °F 9.2 °F 21.2 °F 93% 30.02 in 5.0 mi North 17.3 mph 25.3 mph 0.00 in Snow Light Snow
5:52 AM 21.9 °F 4.8 °F 19.0 °F 89% 30.13 in 5.0 mi North 26.5 mph 33.4 mph 0.00 in Snow Light Snow
6:49 AM 21.2 °F 6.8 °F 17.6 °F 86% 30.10 in 10.0 mi North 17.3 mph - 0.00 in   Mostly Cloudy
6:52 AM 21.0 °F 6.2 °F 18.0 °F 88% 30.19 in 10.0 mi North 18.4 mph - 0.00 in   Mostly Cloudy
7:52 AM 21.9 °F 7.3 °F 17.1 °F 82% 30.24 in 10.0 mi North 18.4 mph 28.8 mph N/A   Overcast
8:52 AM 21.9 °F 11.7 °F 18.0 °F 85% 30.28 in 5.0 mi North 9.2 mph - 0.00 in Snow Light Snow
9:52 AM 23.0 °F 10.6 °F 18.0 °F 81% 30.30 in 10.0 mi NNW 13.8 mph - 0.00 in   Overcast
10:23 AM 23.0 °F 11.1 °F 17.6 °F 80% 30.22 in 7.0 mi NNW 12.7 mph - 0.00 in Snow Light Snow
10:28 AM 23.0 °F 10.6 °F 19.4 °F 86% 30.22 in 2.5 mi NNW 13.8 mph - 0.00 in Snow Light Snow
10:35 AM 23.0 °F 11.1 °F 19.4 °F 86% 30.22 in 1.2 mi NNW 12.7 mph - 0.00 in Snow Light Snow
10:52 AM 24.8 °F 15.3 °F 19.4 °F 80% 30.23 in 3.0 mi NNW 9.2 mph - N/A Snow Light Snow
11:26 AM 24.8 °F 12.9 °F 19.4 °F 80% 30.24 in 5.0 mi NNW 13.8 mph - 0.00 in Snow Light Snow
11:34 AM 24.8 °F 12.4 °F 19.4 °F 80% 30.24 in 8.0 mi NW 15.0 mph - 0.00 in Snow Light Snow
11:52 AM 24.1 °F 12.0 °F 19.0 °F 81% 30.34 in 8.0 mi NW 13.8 mph - 0.00 in Snow Light Snow
12:37 PM 24.8 °F 13.4 °F 19.4 °F 80% 30.26 in 9.0 mi NNW 12.7 mph - 0.00 in   Overcast
12:52 PM 25.0 °F 13.6 °F 19.0 °F 78% 30.35 in 10.0 mi NW 12.7 mph - 0.00 in   Overcast
1:52 PM 25.0 °F 13.6 °F 19.9 °F 81% 30.34 in 9.0 mi WNW 12.7 mph - 0.00 in   Overcast
2:52 PM 27.0 °F 15.6 °F 19.9 °F 75% 30.33 in 10.0 mi West 13.8 mph - 0.00 in   Overcast
3:52 PM 26.1 °F 15.6 °F 19.9 °F 78% 30.35 in 10.0 mi WNW 11.5 mph - N/A   Mostly Cloudy
4:25 PM 26.6 °F 16.8 °F 21.2 °F 80% 30.25 in 3.0 mi WNW 10.4 mph - 0.00 in Snow Light Snow
4:31 PM 26.6 °F 16.8 °F 21.2 °F 80% 30.25 in 4.0 mi NW 10.4 mph - 0.00 in Snow Light Snow
4:38 PM 26.6 °F 15.2 °F 21.2 °F 80% 30.26 in 1.5 mi WNW 13.8 mph - 0.00 in Snow Light Snow
4:52 PM 26.1 °F 12.7 °F 23.0 °F 88% 30.35 in 0.5 mi NNW 18.4 mph 27.6 mph 0.00 in Fog , Snow Snow
5:00 PM 26.6 °F 13.8 °F 21.2 °F 80% 30.26 in 2.0 mi NW 17.3 mph - 0.00 in Snow Light Snow
5:05 PM 24.8 °F 12.9 °F 21.2 °F 86% 30.26 in 9.0 mi NW 13.8 mph - 0.00 in   Overcast
5:22 PM 24.8 °F 11.9 °F 21.2 °F 86% 30.26 in 10.0 mi NNW 16.1 mph 25.3 mph 0.00 in   Overcast
5:52 PM 24.1 °F 12.0 °F 19.9 °F 84% 30.36 in 10.0 mi North 13.8 mph - 0.00 in   Overcast
6:52 PM 23.0 °F 13.1 °F 19.0 °F 85% 30.37 in 9.0 mi North 9.2 mph - 0.00 in   Overcast
7:52 PM 21.9 °F 14.5 °F 19.0 °F 89% 30.38 in 6.0 mi NNW 5.8 mph - 0.00 in Snow Light Snow
8:52 PM 21.0 °F 12.4 °F 19.0 °F 92% 30.37 in 8.0 mi NW 6.9 mph - 0.00 in Snow Light Snow
9:52 PM 21.0 °F 9.9 °F 18.0 °F 88% 30.37 in 7.0 mi NW 10.4 mph - 0.00 in Snow Light Snow
10:52 PM 21.0 °F 12.4 °F 18.0 °F 88% 30.36 in 10.0 mi WNW 6.9 mph - 0.00 in   Overcast
11:52 PM 19.0 °F 8.2 °F 15.1 °F 85% 30.37 in 10.0 mi WNW 9.2 mph - N/A   Mostly Cloudy